www.pogodaiklimat.ru

АРХИВ ПОГОДЫ в Виннемукке

Время (UTC), дата Ветер
(напр.,м/с)
 
Видим.   Явления Облачность Т
(С)
Тd
(С)
f
(%)
Тe
(С)
Тes
(С)
Комфортность

P
(гПа)

Po
(гПа)
Тmin
(С)
Tmax
(С)
R
(мм)
SD
(см)
19:56 18.08 нст  16 км    ясно  +34.4  -0.6  11  +31  +46  жарко  1007.7  864.9         
20:56 18.08 З  16 км    ясно  +35.6  -0.6  10  +32  +46  жарко  1006.9  864.0         
21:56 18.08 З  8
{12} 
16 км    ясно  +36.1  -0.6  10  +32  +34  жарко  1006.4  863.7         
22:56 18.08 нст  16 км    ясно  +35.0  -1.1  10  +31  +40  жарко  1006.3  863.4  +30.0  +36.7     
23:27 18.08 З  6
{12} 
16 км    ясно  +35.6  -1.7  +32  +33  жарко    863.4         
23:56 18.08 ЮЗ  6
{10} 
16 км    ясно  +35.0  -1.7  10  +31  +33  жарко  1006.1  863.1         
00:56 19.08 З  16 км    ясно  +32.8  -0.6  12  +29  +30  жарко  1006.3  863.4         
01:56 19.08 З  16 км    ясно  +26.7  -0.6  17  +25  +25  комфорт  1006.7  863.7         
02:56 19.08   16 км    ясно  +23.3  -1.1  20  +22  +22  комфорт  1007.3  864.3         
03:56 19.08   16 км    ясно  +21.1  +0.6  26  +21  +21  комфорт  1007.5  864.9         
04:56 19.08   16 км    ясно  +24.4  -1.7  18  +23  +23  комфорт  1007.3  865.1  +19.4  +36.1     
05:56 19.08 СЗ  16 км    ясно  +22.8  -0.6  21  +22  +22  комфорт  1007.7  865.4         
06:56 19.08 С  16 км    ясно  +19.4  -0.6  26  +20  +20    1008.6  866.0         
07:56 19.08 Ю  16 км    ясно  +17.2  0.0  31  +18  +18    1009.2  866.6         
08:56 19.08   16 км    ясно  +18.3  +0.6  30  +18  +18    1009.7  867.2         
09:56 19.08   16 км    ясно  +17.8  +2.8  37  +18  +18    1010.2  867.5         
10:56 19.08   16 км    ясно  +16.1  +3.3  42  +16  +16    1010.8  867.7  +16.1  +23.9     
11:56 19.08   16 км    ясно  +16.7  +3.3  41  +17  +17    1011.1  868.0         
13:56 19.08 С  16 км    ясно  +22.2  +3.9  30  +22  +23  комфорт  1012.2  868.6         
14:56 19.08 С  16 км    ясно  +24.4  +3.9  26  +24  +26  комфорт  1012.4  868.9         
15:56 19.08 З  16 км    ясно  +27.8  -1.1  15  +25  +29  комфорт  1012.5  868.9         
16:56 19.08 З  16 км    ясно  +30.0  -5.6  +26  +30  жарко  1011.5  868.6  +13.9  +30.0     
17:56 19.08 СЗ  16 км    ясно  +31.7  -7.2  +28  +36  жарко  1011.1  868.3         
18:56 19.08 нст  16 км    ясно  +32.8  -6.1  +29  +42  жарко  1010.8  867.7         
19:56 19.08 нст  16 км    ясно  +33.3  -5.6  +29  +43  жарко  1010.4  867.5         
20:56 19.08 ЮЗ  4
{8} 
16 км    ясно  +34.4  -4.4  +30  +38  жарко  1009.5  866.9         
21:56 19.08 нст  16 км    ясно  +34.4  -4.4  +30  +41  жарко  1009.2  866.6         
22:56 19.08 СЗ  4
{7} 
16 км    ясно  +34.4  -4.4  +30  +36  жарко  1009.2  866.3  +30.0  +35.0     
23:56 19.08 СЗ  16 км    ясно  +33.9  -3.9  +30  +34  жарко  1008.9  866.0         
00:56 20.08 СЗ  16 км    ясно  +32.8  -3.3  10  +29  +31  жарко  1008.7  866.0         
01:56 20.08 С  16 км    ясно  +27.2  -1.1  16  +25  +25  комфорт  1009.3  866.3         
02:56 20.08 ЮЗ  16 км    ясно  +21.1  -1.7  22  +21  +21  комфорт  1010.5  867.2         
03:56 20.08   16 км    ясно  +23.3  -1.1  20  +22  +22  комфорт  1010.2  867.2         
04:56 20.08 В  16 км    ясно  +19.4  +0.6  28  +20  +20    1010.5  867.5  +19.4  +35.0     
05:56 20.08 нст  16 км    ясно  +16.1  -0.6  32  +16  +16    1011.2  867.7         
06:56 20.08 Ю  16 км    ясно  +13.9  0.0  38  +13  +13    1011.7  868.0         
07:56 20.08   16 км    ясно  +13.3  -0.6  38  +13  +13    1011.9  868.3         
08:56 20.08 Ю  16 км    ясно  +11.1  -1.7  41  +10  +10    1012.2  868.6         
09:56 20.08 Ю  16 км    ясно  +10.6  -1.7  42  +9  +9    1012.5  868.6         
10:56 20.08   16 км    ясно  +9.4  -1.1  48  +9  +9    1012.8  868.9  +9.4  +21.1     
11:56 20.08 ЮВ  16 км    ясно  +8.9  -2.2  46  +8  +8    1013.2  869.2         
12:56 20.08 Ю  16 км    ясно  +11.1  -1.1  43  +9  +9    1013.6  869.5         
13:56 20.08 Ю  16 км    ясно  +18.3  -1.1  27  +19  +20    1013.9  869.8         
14:56 20.08 З  16 км    ясно  +23.9  -0.6  20  +23  +26  комфорт  1013.9  869.8         
15:56 20.08 нст  16 км    ясно  +27.8  -2.8  13  +25  +30  комфорт  1013.3  869.8         
16:56 20.08 нст  16 км    ясно  +30.0  -1.1  13  +27  +38  жарко  1013.1  869.5  +7.8  +30.0     
17:56 20.08   16 км    ясно  +31.7  -1.1  12  +28  +47  жарко  1012.8  869.2         
18:56 20.08 З  16 км    ясно  +33.9  -1.1  11  +30  +44  жарко  1012.3  868.6         

 

Местоположение метеостанции Winnemucca Municipal Airport: широта 40.9019 долгота -117.8072 высота над уровнем моря 1311 м.

В архиве по умолчанию представлена погода в Виннемукке за последние 1-2 суток. Обновление информации о фактической погоде в базе происходит ежечасно! Архивные данные за месяц целиком и за предыдущие месяцы Вы можете получить, выбрав интересующий диапазон дат из раскрывающегося списка и нажав кнопку "Ввод!".

Внимание! Архив погоды МЕТАР в базе сайта в настоящее время начинается c 1 января 2011 г. Нет смысла пытаться выбрать более раннюю дату.

Внимание! Время в таблицах - всемирное. Для получения местного времени необходимо прибавить поправку, которая в Виннемукке равна -8 ч.

Ветер - указаны скорость ветра в м/с и направление, откуда дует ветер: С - северный, СВ - северо-восточный, В - восточный, ЮВ - юго-восточный, Ю - южный, ЮЗ - юго-западный, З - западный, СЗ - северо-западный.
Видимость - горизонтальная дальность видимости в метрах или километрах. При видимости от 1 до 10 км при отсутствии осадков обычно наблюдается дымка, при ухудшении видимости до 1 км и менее - туман. В сухую погоду видимость может ухудшаться дымом, пылью или мглою.
Атмосферные явления - указаны явления, наблюдавшиеся в указанный момент времени.
Облачность - указаны через наклонную черту верхняя и нижняя облачность в баллах и высота нижней границы облаков в метрах. Внимание: облачность, как и прочие метеорологические величины в США измеряются автоматическими метеостанциями. Указанные значения в баллах носят условный характер и показывают процент времени, в течение которого, в среднем, лазерный луч высотомера отражался от облаков обратно.
T - Температура воздуха - температура, измеренная на высоте 2 м над землей.
Td - Температура точки росы - температура, при понижении до которой содержащийся в воздухе водяной пар достигнет насыщения.
f - Относительная влажность воздуха - влажноcть воздуха, измеренная на высоте 2 м над землей.
Te - Эффективная температура - температура, которую ощущает одетый по сезону человек в тени. Характеристика душности погоды. При расчете учитывается влияние влажности воздуха и скорости ветра на теплоощущения человека.
Tes - Эффективная температура на солнце - температура, которую ощущает человек, с поправкой на солнечный нагрев. Характеристика знойности погоды. Зависит от высоты солнца над горизонтом, облачности и скорости ветра. Ночью, в пасмурную погоду, а также при ветре 12 м/с и более поправка равна нулю.
P - Атмосферное давление - приведенное к уровню моря атмосферное давление.
Po - Атмосферное давление - измеренное на уровне метеостанции атмосферное давление.
Tmin - Минимальная температура - минимум температуры воздуха на высоте 2 м над землей.
Tmax - Максимальная температура - максимум температуры воздуха на высоте 2 м над землей.
R - Количество осадков - Количество выпавших осадков за 3 или 6 часов, мм.
SD - Снежный покров - Высота снежного покрова, см.